McGuire AFB, NJ

12:41 AM EDT on March 23, 2017 (GMT -0400)
McGuire Air Force Base

Weather History for KWRI - October, 2011

Change the Weather History Date:

Friday, October 7, 2011

  Actual Average Record
Temperature  
Mean Temperature 56 °F -  
Max Temperature 67 °F 68 °F 86 °F (2007)
Min Temperature 44 °F 46 °F 35 °F (1999)
Degree Days  
Heating Degree Days 10    
Growing Degree Days 6 (Base 50)    
Moisture  
Dew Point 42 °F    
Average Humidity 65    
Maximum Humidity 86    
Minimum Humidity 34    
Precipitation  
Precipitation 0.00 in - - ()
Sea Level Pressure  
Sea Level Pressure 30.42 in    
Wind  
Wind Speed 2 mph (NE)    
Max Wind Speed 9 mph    
Max Gust Speed -    
Visibility 10 miles    
Events      
Averages and records for this station are not official NWS values.
T = Trace of Precipitation, MM = Missing Value Source: NWS Daily Summary

Daily Weather History Graph

Daily Weather History Graph

Search for Another Location

Airport or City:

Trip Planner

Search our weather history database for the weather conditions in past years. The results will help you decide how hot, cold, wet, or windy it might be!

Date:

Astronomy

Oct. 07, 2011 Rise Set
Actual Time 7:00 AM EDT 6:31 PM EDT
Civil Twilight 6:33 AM EDT 6:58 PM EDT
Nautical Twilight 6:01 AM EDT 7:29 PM EDT
Astronomical Twilight 5:30 AM EDT 8:01 PM EDT
Moon 4:13 PM EDT (10/7) 2:46 AM EDT (10/7)
Length of Visible Light 12h 25m
Length of Day
11h 31m
Waxing Gibbous, 83% of the Moon is Illuminated
Oct 7
Waxing Gibbous
Oct 11
Full
Oct 19
Last Quarter
Oct 26
New
Nov 2
First Quarter

Hourly Weather History & Observations

Time (EDT) Temp. Windchill Dew Point Humidity Pressure Visibility Wind Dir Wind Speed Gust Speed Precip Events Conditions
12:55 AM 46.2 °F - 41.2 °F 83% 30.34 in 10.0 mi Calm Calm - N/A   Clear
1:55 AM 45.5 °F - 41.5 °F 86% 30.34 in 10.0 mi Calm Calm - N/A   Clear
2:55 AM 48.0 °F - 40.6 °F 76% 30.34 in 10.0 mi Calm Calm - N/A   Clear
3:55 AM 46.2 °F - 40.1 °F 79% 30.33 in 10.0 mi Calm Calm - N/A   Clear
4:55 AM 45.5 °F - 39.9 °F 81% 30.35 in 10.0 mi Calm Calm - N/A   Clear
5:55 AM 44.4 °F 42.9 °F 39.2 °F 82% 30.37 in 10.0 mi North 3.5 mph - N/A   Clear
6:55 AM 44.1 °F 41.5 °F 38.8 °F 82% 30.39 in 10.0 mi North 4.6 mph - N/A   Clear
7:55 AM 46.8 °F - 41.4 °F 81% 30.41 in 10.0 mi NNE 4.6 mph - N/A   Clear
8:55 AM 53.1 °F - 44.1 °F 71% 30.43 in 10.0 mi NNE 6.9 mph - N/A   Clear
9:55 AM 57.7 °F - 44.8 °F 62% 30.45 in 10.0 mi NE 6.9 mph - N/A   Clear
10:55 AM 62.2 °F - 45.5 °F 54% 30.45 in 10.0 mi East 8.1 mph - N/A   Clear
11:55 AM 64.8 °F - 43.7 °F 46% 30.45 in 10.0 mi NNE 9.2 mph - N/A   Clear
12:55 PM 66.0 °F - 43.5 °F 44% 30.44 in 10.0 mi Variable 4.6 mph - N/A   Clear
1:55 PM 66.7 °F - 39.7 °F 37% 30.44 in 10.0 mi Variable 4.6 mph - N/A   Clear
2:55 PM 67.1 °F - 37.9 °F 34% 30.43 in 10.0 mi Variable 3.5 mph - N/A   Clear
3:55 PM 67.3 °F - 39.9 °F 37% 30.43 in 10.0 mi East 3.5 mph - N/A   Clear
4:55 PM 66.6 °F - 39.0 °F 36% 30.43 in 10.0 mi ESE 4.6 mph - N/A   Clear
5:55 PM 63.7 °F - 44.1 °F 49% 30.44 in 10.0 mi ESE 3.5 mph - N/A   Clear
6:55 PM 57.9 °F - 45.1 °F 62% 30.45 in 10.0 mi ESE 4.6 mph - N/A   Clear
7:55 PM 54.5 °F - 45.1 °F 71% 30.46 in 10.0 mi Calm Calm - N/A   Clear
8:55 PM 52.2 °F - 44.6 °F 75% 30.46 in 10.0 mi Calm Calm - N/A   Clear
9:55 PM 50.9 °F - 44.2 °F 78% 30.47 in 10.0 mi Calm Calm - N/A   Clear
10:55 PM 49.6 °F - 43.9 °F 81% 30.48 in 10.0 mi Calm Calm - N/A   Clear
11:55 PM 49.1 °F - 44.2 °F 83% 30.48 in 10.0 mi Calm Calm - N/A   Clear